Flag for Russia Weather past 2 weeks in Surgut, Russia

Now
59 °F

Scattered clouds.


Feels Like: 57 °F
Forecast: 49 / 61 °F
Wind: 10 mph from Northwest

Location: Surgut Airport

Current Time: Aug 20, 2014 at 10:55:12 AM

Latest Report: Aug 20, 2014 at 10:30 AM


Visibility: 4 mi

Pressure: 30.18 "Hg

Humidity: 68%

Dew point: 48 °F

Location of SurgutLocation

Historic Weather in Surgut — Graph

°F

Surgut temperature yesterday

Maximum temperature yesterday: 68 °F (at 9:30 AM)
Minimum temperature yesterday: 59 °F (at 2:30 AM)
Average temperature yesterday: 63 °F

Past Weeks' High & Low Weather Summary

 TemperatureHumidityPressure
High75 °F (Aug 10, 12:00 PM)100% (Aug 9, 4:00 AM)30.15 "Hg (Aug 9, 4:00 AM)
Low46 °F (Aug 7, 5:00 AM)35% (Aug 14, 2:00 PM)29.45 "Hg (Aug 18, 12:00 AM)
Average60 °F75%29.79 "Hg
* Reported Aug 5 9:00 AM — Aug 20 9:30 AM, Surgut, Weather by CustomWeather, © 2014

Note: Actual official high and low records may vary slightly from our data, if they occured in-between our weather recording intervals... More about our weather records

Advertising

Surgut weather history for previous 24 hours

 ConditionsComfort  
Time TempWeatherWind HumidityBarometerVisibility
9:30 AM
Aug 20
57 °FScattered clouds.8 mph72%30.15 "Hg4 mi
9:00 AM57 °FPassing clouds.10 mph77%30.15 "Hg4 mi
8:30 AM55 °FPassing clouds.13 mph77%30.15 "Hg4 mi
8:00 AM55 °FSunny.10 mph82%30.12 "Hg4 mi
7:30 AM54 °FSunny.8 mph82%30.12 "Hg4 mi
7:00 AM52 °FSunny.8 mph88%30.12 "Hg4 mi
6:30 AM52 °FSunny.6 mph88%30.09 "Hg4 mi
6:00 AM50 °FClear.6 mph94%30.09 "Hg4 mi
5:30 AM50 °FPassing clouds.6 mph94%30.09 "Hg4 mi
5:00 AM52 °FPassing clouds.6 mph88%30.07 "Hg4 mi
4:30 AM54 °FPassing clouds.6 mph82%30.07 "Hg4 mi
4:00 AM54 °FPassing clouds.8 mph82%30.04 "Hg4 mi
3:30 AM54 °FPassing clouds.8 mph82%30.04 "Hg4 mi
3:00 AM55 °FPassing clouds.8 mph77%30.01 "Hg4 mi
2:30 AM55 °FPassing clouds.8 mph77%30.01 "Hg4 mi
2:00 AM57 °FPassing clouds.8 mph67%29.98 "Hg4 mi
1:30 AM57 °FPassing clouds.8 mph72%29.98 "Hg4 mi
1:00 AM57 °FPassing clouds.8 mph77%29.95 "Hg4 mi
12:30 AM57 °FPassing clouds.6 mph77%29.95 "Hg4 mi
12:00 AM57 °FClear.6 mph77%29.95 "Hg4 mi
11:30 PM
Aug 19
59 °FPassing clouds.6 mph72%29.92 "Hg4 mi
11:00 PM61 °FPassing clouds.10 mph68%29.92 "Hg4 mi
10:30 PM61 °FPassing clouds.8 mph77%29.89 "Hg4 mi
10:00 PM61 °FPassing clouds.8 mph83%29.89 "Hg4 mi
9:30 PM61 °FPartly sunny.8 mph83%29.86 "Hg4 mi
9:00 PM63 °FPartly sunny.8 mph77%29.86 "Hg4 mi
8:30 PM63 °FBroken clouds.8 mph77%29.83 "Hg4 mi
8:00 PM63 °FBroken clouds.13 mph77%29.80 "Hg4 mi
7:30 PM66 °FBroken clouds.22 mph68%29.80 "Hg4 mi
7:00 PM66 °FBroken clouds.13 mph73%29.80 "Hg4 mi
6:30 PM68 °FPartly sunny.10 mph73%29.77 "Hg4 mi
6:00 PM66 °FPartly sunny.13 mph78%29.77 "Hg4 mi
5:30 PM64 °FPartly sunny.8 mph83%29.77 "Hg4 mi
5:00 PM61 °FSprinkles. Broken clouds.10 mph94%29.77 "Hg4 mi
4:30 PM59 °FThundershowers. Broken clouds.15 mph94%29.77 "Hg4 mi
4:00 PM59 °FThunderstorms. Scattered clouds.10 mph94%29.74 "Hg4 mi
3:30 PM68 °FThundershowers. Broken clouds.10 mph83%29.74 "Hg4 mi
3:00 PM68 °FBroken clouds.13 mph83%29.74 "Hg4 mi
2:30 PM66 °FPartly sunny.6 mph88%29.74 "Hg4 mi
2:00 PM64 °FSprinkles. Broken clouds.8 mph94%29.74 "Hg4 mi
1:30 PM68 °FBroken clouds.6 mph78%29.74 "Hg4 mi
1:00 PM68 °FBroken clouds.10 mph78%29.74 "Hg4 mi
12:30 PM68 °FBroken clouds.10 mph73%29.74 "Hg4 mi
12:00 PM68 °FBroken clouds.8 mph78%29.74 "Hg4 mi
11:30 AM68 °FBroken clouds.6 mph78%29.74 "Hg4 mi
11:00 AM68 °FBroken clouds.6 mph78%29.74 "Hg4 mi
10:30 AM68 °FBroken clouds.8 mph78%29.74 "Hg4 mi
10:00 AM68 °FBroken clouds.10 mph78%29.77 "Hg4 mi
Weather by CustomWeather, © 2014

See weather overviewHow to use our weather pages